VU3OPZ-13 Weather Reports


Display with metric or nautical units.
time (UTC)temp
F
wind
direction
speed
MPH
gust
MPH
rain 1hr
in
rain 24hr
in
rain mn
in
humidity
%
barometer
mb
20260505064545 95 337 3.0 0.0 0.00 0.00 0.00 18 1009.0
20260505061542 93 318 6.0 0.0 0.00 0.00 0.00 23 1010.0
20260505054537 93 318 6.0 0.0 0.00 0.00 0.00 23 1010.0
20260505051533 89 308 8.0 0.0 0.00 0.00 0.00 31 1011.0
20260505041524 84 296 8.0 0.0 0.00 0.00 0.00 44 1011.0
20260505034520 84 296 8.0 0.0 0.00 0.00 0.00 44 1011.0
20260505031514 79 280 7.0 0.0 0.00 0.00 0.00 60 1011.0
20260505024510 79 280 7.0 0.0 0.00 0.00 0.00 60 1011.0
20260505021505 74 270 7.0 0.0 0.00 0.00 0.00 76 1011.0
20260505014501 74 270 7.0 0.0 0.00 0.00 0.00 76 1011.0
20260505011456 72 263 5.0 0.0 0.00 0.00 0.00 86 1010.0
20260505004452 72 263 5.0 0.0 0.00 0.00 0.00 83 1010.0
20260505001447 71 271 6.0 0.0 0.00 0.00 0.00 85 1009.0
20260504234443 71 274 5.0 0.0 0.00 0.00 0.00 85 1009.0
20260504231438 72 275 7.0 0.0 0.00 0.00 0.00 86 1009.0
20260504224434 72 275 7.0 0.0 0.00 0.00 0.00 86 1009.0
20260504221429 72 271 9.0 0.0 0.00 0.00 0.00 85 1008.0
20260504214425 72 271 9.0 0.0 0.00 0.00 0.00 85 1008.0
20260504211420 73 275 10.0 0.0 0.00 0.00 0.00 82 1008.0
20260504204416 73 275 10.0 0.0 0.00 0.00 0.00 82 1008.0
20260504201411 75 280 10.0 0.0 0.00 0.00 0.00 77 1009.0
20260504194407 75 280 10.0 0.0 0.00 0.00 0.00 77 1009.0
20260504191402 76 280 10.0 0.0 0.00 0.00 0.00 73 1009.0
20260504181352 77 278 10.0 0.0 0.00 0.00 0.00 67 1009.0
20260504174347 77 290 11.0 0.0 0.00 0.00 0.00 67 1009.0
20260504171343 79 278 11.0 0.0 0.00 0.00 0.00 59 1009.0
20260504141315 86 272 20.0 0.0 0.00 0.00 0.00 34 1007.0
20260504081222 99 279 14.0 0.0 0.00 0.00 0.00 13 1006.0